User: anonymous   Login
Location: Unspecified
(0.0000°N, 0.0000°E)
Time: 08:06:33
(UTC+00:00)
Language:

DIDO 2 - Orbit

View from above orbital plane
View from above orbital plane
View from above satellite
View from above satellite

Ground track
Ground track

The orbit data is extracted from the following two-line orbital elements,

1 42000U 17008BE  18232.90213848 +.00000968 +00000-0 +43750-4 0  9999
2 42000 097.4428 296.7748 0009786 137.3203 222.8795 15.23312520083251
Epoch (UTC): 20 August 2018 21:39:04
Eccentricity: 0.0009786
inclination: 97.4428°
perigee height: 489 km
apogee height: 502 km
right ascension of ascending node: 296.7748°
argument of perigee: 137.3203°
revolutions per day: 15.23312520
mean anomaly at epoch: 222.8795°
orbit number at epoch: 8325

The dashed part of the orbit path shows where the satellite is in the earth's shadow,  

DLR